Temp
14 14 15 17 18 18 19 19 19 20 20 20 19 19 19 19 19 19 18 18 18 18 18 18 18 18 18 18 18 18 18 17 17 18 18 17 17 17 16 16 16 17 17 16 16 16 16 16 17 17 17 17 17 17 18 18 19 19 19 19 19 19 20 20 19 17 18 18 19 18 17 17 16 16 16 16 16 16 15 15 15 15 15 15 15
15 14 14 16 18 18 19 19 19 19 19 19 19 19 19 19 19 18 18 18 18 18 18 18 18 18 18 18 18 18 18 18 17 17 18 17 17 17 17 17 16 17 17 17 16 16 16 16 17 17 17 17 17 17 18 18 19 19 19 19 19 19 20 20 20 18 17 17 18 18 17 17 17 16 16 16 16 16 15 15 15 15 15 15 15
15 15 14 15 16 18 19 19 19 19 19 19 19 19 19 19 18 18 18 18 18 19 19 19 19 19 19 18 18 18 18 18 18 18 17 17 17 17 17 17 17 17 17 17 17 16 16 16 17 17 17 17 17 18 18 18 19 19 19 20 19 19 20 21 20 19 17 16 17 17 16 17 17 17 17 17 16 16 16 16 15 15 15 15 15
15 15 15 15 15 17 19 19 19 19 19 19 19 19 19 19 19 19 19 19 19 19 19 19 19 19 19 19 18 18 18 18 18 18 18 17 17 17 17 17 17 17 17 17 17 17 16 17 17 17 17 17 17 18 18 18 19 19 19 19 19 20 20 21 20 20 18 17 17 17 17 17 17 18 17 17 16 16 16 16 16 15 15 15 16
16 16 17 17 16 16 18 19 19 19 19 19 19 19 19 19 19 19 19 19 19 19 19 19 19 19 19 19 18 18 18 18 18 18 18 18 18 18 18 18 18 18 17 17 17 17 17 17 17 17 17 17 18 18 18 18 19 19 19 19 20 20 20 20 20 20 19 18 17 17 17 17 18 18 17 17 16 16 16 16 16 16 16 16 16
16 16 17 18 17 16 17 19 19 19 19 19 19 19 19 19 19 19 19 19 19 19 19 19 19 19 19 18 18 18 18 18 18 18 18 18 19 18 18 18 18 18 18 18 18 17 17 17 17 17 17 18 18 18 18 18 19 19 19 19 20 20 20 20 20 20 20 19 18 17 18 18 17 17 17 17 17 16 16 16 16 16 16 16 16
15 16 16 17 17 16 15 17 19 19 19 19 19 19 19 19 19 19 19 19 19 19 19 19 19 18 18 18 18 18 18 18 19 18 18 19 19 19 19 19 19 19 18 18 18 18 18 18 18 18 18 18 18 18 18 18 19 19 19 20 20 20 20 20 20 20 20 19 19 18 18 18 18 17 17 18 17 17 17 16 15 16 16 16 16
15 15 15 15 16 16 15 15 18 19 19 19 19 19 19 19 19 19 19 19 19 19 19 19 18 18 18 18 18 18 18 19 19 18 18 18 19 19 19 19 19 19 19 19 18 18 18 18 18 18 18 18 18 17 18 18 19 19 19 20 20 20 20 20 20 19 19 20 19 18 18 18 18 18 18 17 16 16 17 16 16 16 16 16 17
14 14 14 14 15 15 15 15 16 17 18 19 19 19 19 19 19 19 19 19 19 19 19 18 18 18 18 18 18 18 18 18 18 18 18 18 18 19 19 19 19 19 18 19 18 18 18 18 18 18 18 18 17 17 18 18 18 19 19 19 20 20 20 20 20 19 19 20 19 19 19 19 19 19 18 17 17 17 17 17 17 17 17 17 16
13 14 14 14 14 15 15 15 15 15 17 18 19 19 19 19 19 19 19 19 19 19 18 18 18 18 18 18 18 18 18 18 18 18 18 18 18 18 18 19 19 19 18 18 18 18 18 18 18 18 18 17 17 18 18 18 18 18 19 19 19 19 19 19 19 19 19 19 19 18 19 19 19 19 19 19 18 18 18 18 17 18 18 17 17
12 13 13 14 14 14 15 15 15 15 16 17 18 18 19 19 19 19 19 19 19 18 18 17 17 17 17 17 17 17 17 17 17 18 18 18 18 18 18 18 19 19 19 18 18 18 18 18 18 18 18 17 17 18 18 18 18 18 18 19 19 19 19 19 19 19 18 18 18 18 18 18 18 18 18 19 19 18 18 18 18 18 18 18 18
10 11 13 13 14 14 14 14 15 15 15 16 17 18 19 18 18 19 19 18 18 17 17 17 17 17 17 17 17 17 17 17 17 17 18 18 18 18 18 18 18 18 18 18 18 18 18 17 17 17 17 17 17 18 18 18 18 18 18 18 18 18 18 18 18 18 18 18 18 18 18 18 18 18 18 18 18 18 18 18 18 18 18 18 18
9 9 11 12 13 14 14 14 14 14 15 15 16 17 18 18 18 18 18 17 17 17 16 17 16 16 17 17 16 16 16 17 17 17 18 17 17 18 18 18 18 18 18 18 18 17 17 17 17 17 17 17 17 17 17 17 17 17 17 17 17 18 18 18 18 18 18 18 18 18 18 18 18 17 17 17 17 17 17 17 17 17 17 17 17
8 8 8 10 12 13 14 14 13 14 14 15 15 16 17 17 17 17 17 17 16 16 16 16 16 16 16 16 16 15 15 16 16 17 17 17 17 17 17 17 17 17 17 17 17 17 17 17 16 16 16 17 17 17 17 17 17 17 17 17 16 16 16 17 17 17 17 17 17 17 17 17 17 17 17 17 17 17 17 17 17 16 16 16 17
7 7 7 7 9 11 12 13 13 13 13 14 14 15 15 16 15 15 15 15 15 15 15 15 15 15 15 15 15 15 14 15 15 16 17 17 17 17 17 17 17 16 16 16 16 16 16 16 16 16 16 16 16 16 16 16 16 16 16 16 16 16 16 16 16 16 16 16 16 16 16 16 16 16 16 16 16 16 16 16 16 16 16 16 16
7 7 7 6 7 8 9 10 11 12 12 13 13 12 13 14 14 14 14 14 14 14 14 14 14 13 14 15 15 14 14 14 15 15 16 16 16 16 16 16 16 16 15 16 16 15 15 16 16 15 15 15 15 15 15 15 16 16 16 16 15 15 15 15 15 15 15 15 15 16 16 15 15 16 16 16 16 16 16 16 16 16 16 15 15
6 6 6 6 7 7 7 8 9 10 10 11 11 11 11 12 12 13 13 13 12 12 12 12 12 12 13 13 14 13 13 13 14 15 15 16 16 16 16 15 15 15 15 15 15 15 14 14 14 14 14 14 14 14 14 15 15 15 15 15 14 14 14 14 14 14 14 14 14 14 14 14 15 15 15 15 15 15 15 14 15 15 14 14 14
5 5 6 6 7 7 7 7 7 8 9 9 9 10 10 11 11 12 12 12 11 11 11 11 11 12 12 12 13 13 13 13 14 14 15 15 16 15 15 15 14 14 14 13 14 14 13 13 13 13 14 13 13 14 14 14 14 14 14 14 14 14 14 14 14 14 14 14 14 14 14 14 14 14 14 14 14 14 14 14 14 14 13 13 13
5 5 5 6 7 8 7 7 7 8 8 8 8 9 9 10 10 11 11 11 11 10 11 11 11 11 11 11 12 12 12 12 13 14 14 14 14 14 14 14 13 12 12 12 12 12 12 12 12 12 12 12 12 13 13 13 13 13 13 13 13 13 13 13 13 14 14 14 14 14 14 15 14 14 14 14 14 14 13 13 13 13 13 12 12
6 6 6 6 7 7 7 7 7 7 8 8 8 8 9 9 9 10 10 10 10 10 10 10 10 10 10 10 11 11 12 12 12 13 13 14 13 13 13 13 12 11 11 11 11 11 11 11 11 11 11 11 12 12 12 12 12 12 12 12 12 12 12 12 12 12 12 12 13 13 13 14 14 14 14 14 14 13 13 13 12 12 12 12 12
6 6 6 6 7 7 7 7 7 7 8 8 8 8 9 9 9 9 9 9 9 9 9 9 9 9 9 9 10 10 10 11 11 12 12 13 13 13 13 12 11 11 11 11 11 11 11 10 10 10 10 11 11 11 12 11 12 11 11 11 11 11 11 11 11 11 11 11 11 11 12 12 12 12 12 12 12 12 12 12 12 11 11 11 12
7 6 6 6 7 7 7 7 7 7 8 8 8 8 8 8 9 9 9 9 9 9 8 8 8 8 8 8 8 8 9 10 10 10 11 12 12 12 12 11 10 11 11 11 10 10 9 9 9 10 10 10 11 11 11 11 11 10 10 10 10 10 10 10 10 10 10 10 10 10 10 10 11 11 11 11 11 11 11 11 11 10 10 10 11
7 7 7 7 7 7 7 7 7 7 8 8 8 8 8 8 8 8 9 9 8 8 8 7 7 7 7 7 7 7 8 8 9 9 9 10 10 10 11 10 10 10 10 10 9 9 9 9 9 10 10 10 10 10 10 10 10 9 9 9 9 9 10 10 10 10 10 10 9 9 10 9 9 10 10 10 10 9 10 10 10 10 10 10 10
8 8 7 7 7 7 7 7 7 7 7 8 8 8 8 8 8 9 9 9 8 8 8 8 8 7 6 6 6 7 7 8 8 8 8 8 8 8 9 9 9 9 9 9 8 9 9 9 9 9 9 10 9 9 9 9 9 9 9 9 9 9 9 9 9 9 9 9 9 9 9 8 8 9 8 8 9 9 9 9 10 10 10 10 9
9 8 8 8 7 7 7 7 7 7 7 7 7 7 8 8 8 9 9 9 9 8 8 8 8 7 6 6 5 6 6 7 7 8 8 8 8 8 7 8 8 8 8 8 8 8 9 9 9 9 9 9 9 9 9 9 9 9 9 9 9 9 8 8 8 8 8 8 8 8 7 7 8 8 8 8 8 8 8 9 9 9 9 9 9
9 9 8 8 8 8 8 7 7 7 7 7 7 7 7 7 7 8 8 9 9 9 8 8 8 7 6 5 5 5 6 7 7 7 7 7 7 7 7 7 8 8 8 8 8 8 8 9 9 9 9 9 9 9 8 8 8 8 8 8 8 8 8 7 7 7 7 7 7 6 6 6 7 7 7 7 7 7 7 8 8 8 8 8 8
9 9 9 8 8 8 8 8 8 8 7 7 7 7 7 7 7 7 8 8 8 8 8 8 7 6 5 5 6 6 6 7 7 7 7 7 7 7 7 7 7 8 8 8 8 8 8 8 8 8 8 8 8 8 8 8 8 8 7 7 7 7 7 7 6 6 6 6 6 6 6 6 6 6 6 6 6 6 6 6 6 7 7 6 7
9 9 9 9 8 8 8 8 8 8 8 7 7 7 7 7 7 7 7 7 7 8 7 7 6 6 6 6 6 6 6 6 7 7 7 7 7 7 7 7 7 8 8 8 8 8 8 8 8 8 8 8 7 7 7 7 7 7 7 6 6 6 6 6 6 6 5 5 5 5 5 5 5 5 5 5 5 5 5 5 5 5 6 5 6
9 9 9 9 9 8 8 8 8 8 8 8 7 7 6 7 7 7 7 7 7 7 7 6 6 6 6 6 7 7 6 6 6 7 7 7 7 7 7 7 7 8 8 8 8 8 8 8 8 7 7 7 7 6 6 6 6 6 6 6 6 5 5 5 5 5 5 5 5 4 4 4 4 4 4 4 4 4 4 4 4 4 5 5 5
8 8 9 9 9 9 9 8 8 8 8 8 7 7 6 6 6 6 6 6 6 7 7 6 6 7 7 6 6 6 6 6 6 6 6 6 6 6 6 6 7 7 7 7 8 8 7 7 7 6 6 6 6 5 5 5 5 5 5 5 5 5 5 4 4 4 4 4 4 3 3 3 3 3 2 2 2 3 3 3 3 3 4 4 5
8 8 9 9 9 9 9 9 8 8 8 8 8 7 7 6 6 6 6 6 6 6 6 6 6 6 7 6 5 5 5 6 6 6 6 6 6 6 6 6 6 7 7 7 7 7 6 6 5 5 5 5 5 5 4 4 4 4 4 4 4 4 4 4 3 3 4 3 3 3 2 2 2 1 1 1 2 2 2 2 3 3 3 4 4
8 8 9 9 8 9 9 9 9 8 8 8 8 8 7 7 6 6 6 6 6 6 6 6 6 5 6 5 5 5 5 5 5 5 6 6 6 6 6 7 6 6 6 6 6 6 5 5 5 4 4 4 4 4 4 4 4 4 3 3 3 3 3 3 3 3 3 2 2 2 1 1 1 1 1 1 1 1 2 2 2 2 3 3 3
8 8 8 8 8 8 9 9 8 8 8 7 7 8 8 7 7 6 6 5 5 5 5 5 5 5 5 5 5 5 5 5 5 5 5 6 6 7 7 7 6 6 6 6 5 5 5 4 4 4 4 4 4 4 3 3 3 3 3 3 3 2 2 2 2 2 2 1 1 1 1 0 0 1 1 1 1 1 2 2 2 2 3 3 3
8 8 8 8 8 8 8 9 8 8 8 8 8 8 8 7 7 7 6 5 5 5 5 5 5 5 5 5 5 5 5 5 5 5 6 6 6 7 7 6 6 5 5 5 5 4 4 4 4 4 4 3 3 3 3 3 3 3 2 2 2 2 2 2 2 2 1 1 1 1 0 0 0 1 1 1 1 1 1 1 2 2 2 2 3
8 8 8 8 8 8 8 8 8 8 8 8 8 8 8 7 7 7 7 6 5 5 5 5 4 5 5 4 5 5 4 5 5 5 5 6 6 6 6 5 5 5 5 4 4 4 4 3 3 3 3 3 3 3 3 3 2 2 2 2 2 2 1 2 1 1 1 1 1 0 0 0 0 1 1 1 1 0 0 1 1 1 1 2 2
7 7 7 8 8 8 8 8 8 8 8 8 8 8 8 8 7 7 7 6 6 5 4 4 4 4 4 4 4 4 4 4 4 5 5 5 5 5 5 4 4 4 4 3 3 3 3 3 2 3 3 2 2 2 2 2 2 2 2 2 1 1 1 1 1 0 0 1 0 0 0 0 0 0 0 0 0 0 -0 0 0 1 1 1 2
7 7 7 7 8 8 8 8 8 8 8 8 8 8 7 7 7 7 7 6 6 5 4 4 4 4 4 4 4 4 4 4 4 4 4 4 4 4 4 3 3 3 3 3 2 2 2 2 2 2 2 2 2 2 2 2 2 2 2 2 1 1 1 1 1 1 1 1 0 0 0 -0 -0 -0 -0 0 0 0 -0 -0 0 0 0 1 1
7 7 7 7 7 7 8 8 8 8 8 8 8 7 7 7 7 7 6 6 5 5 4 4 4 5 4 4 4 4 4 4 4 4 3 3 3 3 3 3 2 2 2 2 2 2 1 1 1 1 1 1 1 1 2 2 2 2 2 1 1 1 1 1 1 1 1 1 0 0 0 0 0 0 0 0 -0 -0 -0 -0 -0 -0 0 0 0
7 7 7 7 7 7 8 8 8 7 7 7 7 7 7 6 6 6 6 6 5 5 4 4 4 4 4 4 4 4 3 3 3 3 3 2 2 2 2 2 2 2 2 2 1 1 1 1 0 0 1 1 1 1 1 1 1 1 1 1 1 1 1 1 1 1 1 1 1 1 1 1 0 0 0 0 0 0 0 0 -0 -0 -0 -0 0
7 7 7 7 7 7 7 8 8 8 7 7 7 7 6 6 6 6 6 5 5 5 4 4 4 4 4 4 4 4 3 3 2 2 2 2 2 1 1 1 1 1 1 1 1 1 0 0 -0 -0 0 1 1 1 1 1 1 1 1 1 1 1 1 1 1 1 1 1 1 1 1 1 1 1 1 0 0 0 0 0 0 0 0 0 0
7 7 7 7 7 7 7 7 7 7 7 7 7 6 6 6 6 6 5 5 5 4 4 4 4 4 4 3 3 3 3 2 2 2 2 1 1 1 1 1 1 0 0 0 0 0 0 -0 -0 -0 0 1 1 1 1 1 1 1 1 1 1 1 1 1 1 1 1 1 1 1 1 1 1 1 1 1 1 1 1 1 1 0 0 0 1
7 7 7 7 7 7 7 7 7 7 7 6 6 6 6 6 6 5 5 5 4 4 4 4 4 3 3 3 3 3 2 2 2 2 1 1 1 1 1 0 0 0 -0 -0 0 0 -0 -0 -0 0 1 1 1 1 1 1 1 1 1 1 1 1 1 1 1 1 1 1 2 2 2 2 1 1 1 1 1 1 1 1 1 1 1 1 1
6 6 6 6 6 7 7 7 7 7 6 6 6 5 5 5 5 5 5 5 4 4 4 4 3 3 3 3 3 3 2 2 1 1 1 1 1 1 0 0 0 0 -0 -0 -0 -0 -1 -1 -0 0 1 1 1 1 1 1 1 1 1 1 1 1 1 1 1 1 1 2 2 2 2 2 2 2 2 2 1 1 1 1 1 1 1 1 1
6 6 6 6 6 7 7 7 7 6 6 6 5 5 5 5 5 5 5 5 4 4 4 3 3 3 3 3 3 2 2 2 2 1 1 1 1 1 1 1 1 1 0 -0 -0 -1 -1 -1 -0 0 1 1 1 1 1 1 1 1 1 1 1 1 1 1 1 1 1 1 2 2 2 2 2 2 2 2 2 2 2 2 2 2 2 2 1
5 5 5 6 6 6 7 7 6 6 6 5 5 5 5 4 4 4 4 4 4 4 4 4 3 3 3 3 2 2 2 2 2 2 2 2 1 1 1 1 1 1 1 0 0 -0 -0 -0 0 0 1 1 1 1 1 1 1 1 1 1 1 1 1 1 1 1 1 1 1 2 2 2 2 2 2 2 2 2 2 2 2 2 2 2 2
5 5 6 6 6 6 7 7 6 6 6 5 5 5 5 4 4 4 4 4 4 4 4 4 4 3 3 3 2 2 2 2 2 2 2 2 2 1 1 1 1 1 1 1 1 0 0 0 0 1 1 1 1 1 1 1 1 1 1 1 1 1 1 1 1 1 1 1 1 1 1 2 2 2 2 2 2 2 2 2 2 2 2 2 2
6 6 6 6 6 7 7 6 6 6 5 5 5 5 5 4 4 4 4 4 4 4 4 4 3 3 3 3 2 2 2 2 2 2 2 2 2 2 2 1 1 1 1 1 1 1 0 0 0 1 1 1 1 1 1 1 1 1 1 1 1 1 1 1 1 1 1 1 1 2 1 2 2 2 2 2 2 2 2 2 2 2 2 2 2
6 6 6 6 6 7 7 6 6 5 5 5 5 5 4 4 4 4 4 4 4 4 4 4 3 3 3 3 3 3 3 2 3 3 2 2 2 2 2 2 2 2 1 1 1 1 1 1 0 0 0 1 1 1 1 1 1 1 1 1 1 1 1 1 1 1 1 1 2 2 2 2 2 2 2 2 2 2 2 2 2 2 2 2 2
6 6 6 6 7 7 7 6 6 5 5 5 5 5 5 4 4 4 4 4 4 4 4 4 3 3 3 3 3 3 3 3 3 3 3 2 2 2 2 2 2 2 1 1 1 1 1 1 0 0 0 0 0 1 1 1 1 1 1 1 1 1 1 1 1 1 1 1 2 2 2 2 2 1 1 2 2 2 2 2 2 2 2 2 2
6 6 6 7 7 7 7 7 6 6 6 5 5 5 5 4 4 4 4 4 4 4 4 4 4 3 3 3 3 3 3 3 3 3 3 2 2 2 2 2 2 1 1 1 1 1 1 1 0 0 0 0 0 0 1 1 1 1 1 1 1 1 1 1 1 1 1 1 2 2 1 2 2 1 1 2 2 2 2 2 2 2 2 2 2
6 7 7 7 7 7 7 7 6 6 6 5 5 5 5 4 4 4 4 4 4 4 4 4 4 4 4 4 3 3 4 4 4 4 3 3 2 2 2 2 1 1 1 1 1 1 1 1 0 0 0 0 0 0 0 0 0 0 0 0 0 1 1 1 1 1 1 1 1 1 1 2 2 1 1 2 2 2 2 2 2 2 2 2 2
Height
789 790 789 786 783 782 783 783 783 784 784 784 784 786 788 790 793 796 799 802 805 807 809 811 813 815 817 818 820 822 823 824 824 824 824 824 825 825 827 828 829 831 832 834 835 837 838 839 841 843 843 844 845 846 847 848 849 850 851 853 854 856 857 856 857 860 862 863 863 865 866 868 870 871 873 874 876 877 878 879 880 880 881 881 882
787 789 791 789 786 784 785 785 784 785 785 785 785 785 787 789 792 795 798 802 804 807 809 810 812 814 815 817 819 821 823 823 824 824 823 824 824 825 826 828 829 830 831 833 834 835 837 838 840 841 842 843 844 845 846 847 848 849 850 852 853 854 854 855 856 858 860 862 863 864 866 867 868 869 871 872 874 875 877 878 878 879 880 880 881
785 787 791 792 789 786 786 786 787 787 787 787 786 786 787 788 790 793 796 800 803 806 808 809 811 812 814 816 818 820 822 823 824 824 824 824 824 824 825 827 829 830 831 832 833 834 836 837 838 840 841 842 844 845 846 847 847 848 850 851 852 852 853 853 854 856 858 861 862 863 865 866 866 867 869 870 872 873 874 875 876 877 877 878 878
784 785 789 792 792 790 787 787 788 788 788 789 788 788 788 788 789 792 795 799 802 805 807 808 810 812 814 816 818 820 821 822 824 824 825 825 824 824 825 826 827 829 830 831 832 834 835 836 838 839 840 841 843 844 845 846 847 848 849 850 851 851 852 852 853 854 856 859 861 861 862 864 865 866 867 869 870 871 872 872 873 874 874 875 875
783 784 785 788 791 790 788 787 787 788 788 789 789 789 790 790 790 791 794 798 801 804 806 808 809 811 813 815 817 819 821 822 823 824 825 825 825 825 825 826 827 828 829 831 832 833 834 836 837 838 840 841 842 843 845 846 847 848 849 849 850 850 851 851 852 853 855 856 858 860 861 862 863 864 865 867 869 870 870 870 870 871 871 872 872
780 782 783 784 787 788 787 785 786 787 788 788 789 789 790 791 792 792 794 797 800 803 805 807 809 811 813 815 817 819 820 821 823 824 825 825 826 826 826 827 828 828 829 830 831 832 833 835 837 838 839 840 842 843 845 846 847 848 848 848 848 849 849 850 851 852 854 855 857 859 860 861 862 863 864 865 866 867 868 869 869 869 869 869 868
778 779 780 781 783 785 786 786 785 786 787 788 789 789 790 791 792 793 794 796 799 802 805 807 809 810 813 815 817 818 819 821 822 823 824 825 826 826 827 827 828 829 830 830 831 832 833 835 836 837 838 840 842 843 844 845 846 847 847 846 847 847 848 849 851 852 853 855 857 858 859 860 861 862 862 863 864 865 866 867 867 867 867 866 865
777 778 779 780 781 782 785 788 787 785 787 788 789 789 789 791 792 793 795 797 800 802 804 806 808 811 813 815 816 817 819 820 822 823 824 824 826 827 827 827 827 828 829 830 832 833 834 835 836 836 838 839 841 843 844 845 845 846 846 845 845 846 847 848 850 852 853 855 856 857 858 860 860 861 861 862 863 864 864 864 864 864 864 863 862
778 778 779 781 782 781 783 787 788 786 787 788 789 789 789 790 792 794 796 797 800 802 803 806 808 811 813 815 816 817 818 820 821 823 824 825 826 827 827 828 828 828 829 830 832 833 834 835 836 836 838 839 841 842 843 844 845 845 845 845 845 846 847 848 849 851 853 853 854 855 857 857 858 859 860 860 861 860 861 862 862 861 861 861 860
778 779 779 780 782 782 782 784 786 788 789 789 790 790 789 790 791 794 796 798 800 802 803 806 809 811 813 815 816 817 818 820 821 823 824 825 826 827 827 828 829 829 830 831 832 833 834 835 836 837 838 839 840 841 842 844 844 844 845 846 846 846 847 848 849 850 851 852 853 854 855 856 856 857 858 858 858 858 858 859 859 858 858 858 858
778 779 779 779 781 782 783 784 784 787 790 790 790 789 789 790 792 794 796 798 800 801 803 806 808 810 813 815 816 817 819 820 822 823 824 825 826 827 827 828 829 830 831 831 832 833 834 835 836 837 838 839 840 841 842 843 844 844 845 846 846 846 846 847 848 849 850 851 852 853 854 855 855 856 856 856 856 856 856 856 856 855 856 855 855
778 778 778 778 779 781 784 785 783 784 788 789 789 788 788 789 792 794 795 797 799 801 804 806 808 810 812 814 816 818 819 820 822 823 825 826 827 827 828 829 829 830 830 831 832 833 834 835 837 837 838 839 840 841 841 843 843 844 845 846 846 847 847 847 848 849 850 851 852 852 853 853 854 854 855 854 854 854 854 854 853 853 853 852 852
780 778 777 777 777 777 781 784 784 784 786 788 788 787 787 789 791 793 795 796 798 801 804 806 808 810 812 814 816 818 819 821 822 824 825 826 827 828 828 829 830 830 830 830 832 834 834 835 836 838 839 839 840 841 841 842 843 844 845 845 846 847 847 848 849 849 850 850 851 852 852 853 853 853 854 853 853 853 853 853 853 852 851 851 850
782 780 778 777 777 777 778 781 784 786 786 786 788 788 788 788 790 792 794 796 799 801 804 807 809 811 813 815 817 818 820 821 822 823 825 826 827 828 829 830 830 831 831 831 833 834 835 836 837 838 839 840 840 841 842 842 843 843 844 845 845 846 847 847 848 849 849 850 850 851 851 852 852 852 852 852 852 852 852 852 851 851 850 849 849
787 785 783 781 779 778 778 779 781 784 784 785 787 789 789 788 790 793 794 797 800 802 805 807 810 812 814 815 817 819 820 821 822 823 824 826 827 828 829 830 830 831 832 832 834 835 836 837 838 838 839 840 841 842 842 843 844 844 845 845 845 846 846 847 847 848 848 848 849 849 850 850 851 851 851 851 851 850 850 850 849 849 848 847 846
791 790 789 787 783 782 781 780 780 782 783 784 787 790 791 789 791 793 795 798 801 804 807 809 811 813 815 816 817 819 820 822 822 823 824 825 827 828 829 830 830 831 832 833 834 836 837 838 838 839 839 840 841 842 843 843 844 844 845 845 846 846 846 847 847 847 848 848 848 848 848 848 849 849 849 849 848 848 848 847 847 847 846 844 843
797 795 794 793 788 786 786 785 783 783 784 785 787 791 793 793 793 794 796 800 803 805 808 811 813 814 816 817 818 819 821 822 823 824 825 825 827 827 828 829 830 831 833 834 835 836 837 838 839 839 840 841 842 843 843 843 844 844 845 845 845 846 846 847 847 847 847 847 847 847 847 847 847 847 847 847 847 847 846 845 845 845 844 842 841
803 800 799 797 792 790 792 792 790 787 786 788 791 793 795 796 796 797 798 801 804 807 810 812 814 816 817 819 820 820 821 822 824 824 825 826 826 827 827 828 830 832 833 834 835 836 837 838 839 839 840 841 842 843 843 844 844 844 845 845 846 846 846 846 846 846 846 846 846 846 846 846 845 845 845 845 845 845 844 843 843 843 842 840 839
808 805 804 801 797 797 798 799 797 792 790 793 796 797 798 800 799 800 802 804 807 810 813 814 816 818 820 821 821 821 821 823 824 825 826 827 827 828 828 828 830 832 834 835 836 836 837 838 839 840 841 842 842 843 843 844 844 844 845 845 845 845 845 846 845 845 845 845 844 844 843 843 843 842 842 842 842 842 842 841 841 841 839 838 837
813 811 808 805 803 803 803 805 803 797 794 798 800 801 803 804 802 803 806 808 810 813 815 817 819 821 822 822 822 822 822 823 825 825 826 827 829 829 829 829 831 833 834 835 836 836 837 838 839 840 841 841 842 843 843 843 844 844 844 844 844 844 845 845 845 844 844 843 843 842 841 841 840 840 839 839 839 840 840 839 839 839 837 835 834
816 814 812 809 808 807 806 807 806 801 800 803 805 805 807 807 807 808 811 812 814 816 819 820 822 823 824 824 823 823 823 824 825 826 826 827 829 830 830 831 832 833 834 835 836 836 837 838 839 840 841 841 842 842 842 843 843 843 843 843 844 844 844 844 844 843 843 842 842 841 840 840 839 839 838 838 837 838 837 837 837 836 835 834 832
817 816 814 813 811 810 809 809 807 806 807 809 810 810 811 811 811 812 814 816 818 820 822 824 824 825 826 826 825 825 825 825 826 826 827 828 829 829 830 832 833 833 834 835 836 836 838 839 840 840 840 841 841 841 842 842 842 843 843 843 843 844 844 844 843 843 842 841 841 841 840 839 839 838 837 836 836 836 835 835 834 833 833 832 830
820 818 817 817 815 814 814 813 813 813 814 814 814 814 814 814 814 815 818 820 822 824 826 827 827 827 828 828 828 828 827 827 827 828 828 829 829 830 830 831 832 833 833 835 836 837 838 839 839 840 840 840 841 841 842 842 842 842 843 843 843 844 843 843 843 842 842 841 841 841 840 839 838 837 836 836 835 834 833 832 831 831 829 828 827
822 821 821 821 820 820 819 819 819 819 820 819 819 818 819 819 819 821 823 825 826 827 828 829 828 828 829 830 831 831 830 829 829 829 830 830 830 831 831 832 832 833 834 835 837 837 837 838 839 840 840 840 841 841 842 842 842 842 843 843 843 843 843 843 842 842 841 841 841 840 840 839 839 838 837 836 835 834 832 831 829 828 827 826 824
825 824 824 824 824 823 823 823 824 825 825 825 824 824 824 825 825 827 827 827 828 829 830 831 831 831 831 832 833 833 832 831 831 831 831 831 831 832 832 833 833 834 835 836 837 837 837 837 838 839 839 840 841 841 841 842 842 842 842 842 842 842 842 842 841 841 841 841 840 840 840 839 839 838 837 836 834 832 830 828 827 826 825 824 822
828 827 827 827 827 826 826 826 827 827 828 828 828 828 829 830 830 832 831 831 830 830 831 832 832 833 834 834 834 834 833 833 833 832 832 832 832 833 834 834 834 835 836 836 837 837 838 838 838 838 839 839 840 840 841 841 841 841 841 841 841 842 841 841 841 841 841 841 841 840 840 839 838 837 835 834 832 831 829 827 825 824 823 822 820
831 830 830 830 830 829 829 829 829 829 830 830 830 831 832 833 834 834 834 833 832 832 832 833 833 834 835 835 835 835 834 834 833 833 833 833 833 834 835 835 835 835 836 836 837 837 838 839 839 839 839 839 840 840 841 841 841 841 841 841 841 841 841 841 841 840 840 840 840 839 838 837 836 834 833 832 831 830 829 827 825 823 822 821 820
835 834 833 833 833 832 832 832 832 832 832 832 833 833 833 834 835 835 835 834 833 833 834 834 834 835 835 836 835 835 834 834 834 834 834 834 834 835 835 835 835 836 836 837 837 838 839 839 839 839 839 839 840 840 841 841 841 841 842 841 841 841 841 840 840 840 840 839 839 838 837 835 834 833 832 831 830 829 828 827 825 823 821 820 819
837 837 836 836 835 835 835 835 835 835 835 835 834 835 835 835 835 835 835 835 835 835 835 835 835 836 835 836 836 835 835 835 835 835 835 835 835 836 835 835 835 836 837 837 838 838 839 839 839 839 840 840 840 841 841 842 842 842 842 842 841 841 840 840 840 840 839 839 838 837 835 834 833 832 831 829 828 828 827 825 824 822 820 819 818
840 839 838 838 837 837 836 836 836 836 836 836 836 836 836 836 836 836 835 835 836 836 835 835 836 836 836 836 836 836 836 837 837 837 837 837 837 837 837 837 837 837 837 838 838 839 839 840 840 840 841 841 842 842 842 842 842 842 842 842 841 841 840 840 840 840 839 839 838 837 835 834 833 831 830 828 826 825 824 823 821 820 818 817 816
841 840 840 839 839 838 838 838 838 837 837 838 838 837 837 837 837 837 837 837 836 836 836 836 837 837 836 837 837 838 838 838 838 838 839 839 839 838 838 838 838 838 839 839 839 839 840 840 841 841 842 842 843 843 843 843 843 843 842 842 842 841 841 841 841 841 840 839 838 837 835 834 832 831 829 827 825 823 822 821 819 818 817 815 814
843 842 841 841 840 839 839 839 839 839 839 839 839 838 838 838 838 839 839 839 838 838 838 838 838 838 838 838 838 839 839 839 840 840 840 840 839 839 839 839 839 839 839 839 839 840 840 841 842 842 843 843 844 844 844 843 843 843 842 842 843 843 843 842 842 841 840 839 837 836 834 833 832 830 828 827 825 823 821 819 818 816 815 814 813
844 843 842 841 841 840 840 840 840 840 840 840 840 839 839 838 838 839 840 840 840 840 840 840 839 839 840 840 840 840 841 841 841 841 841 840 839 839 838 839 839 839 839 839 840 841 842 842 843 844 844 844 844 844 844 844 843 843 843 844 844 843 843 843 842 841 839 838 837 836 834 833 832 830 828 827 825 823 821 819 818 816 814 813 812
844 844 843 843 843 842 841 841 841 841 841 841 841 841 840 839 839 839 840 841 842 842 841 841 841 841 841 841 841 841 842 842 842 842 841 840 839 838 838 838 839 840 840 840 841 842 843 843 844 844 845 845 845 845 844 844 844 844 844 844 844 844 843 843 841 840 839 838 837 836 835 833 831 830 828 827 826 824 823 821 819 817 815 814 812
845 845 844 844 844 844 843 843 842 842 842 841 841 841 841 840 840 840 840 841 841 842 843 843 843 843 843 843 843 843 843 843 843 842 841 841 840 839 838 839 840 841 842 842 843 843 844 844 844 845 845 846 846 845 845 845 845 845 845 845 845 844 843 842 842 841 840 839 838 836 835 834 832 831 830 829 828 827 825 824 822 820 818 816 813
847 846 845 845 845 845 845 844 843 843 842 842 842 842 841 841 841 841 841 841 841 842 844 845 845 844 844 844 844 844 844 844 843 843 842 842 841 840 840 841 842 843 843 844 844 845 845 845 846 847 847 847 846 846 846 846 846 846 846 846 845 845 844 843 843 842 841 840 839 838 837 835 834 833 832 831 830 829 828 826 825 823 821 818 816
847 847 846 846 845 845 845 845 844 844 843 843 843 843 843 842 842 842 842 842 843 844 845 846 846 846 845 845 844 844 845 845 844 844 844 844 843 842 843 843 844 845 845 846 846 846 846 846 847 848 848 847 847 847 847 847 847 847 847 847 847 846 845 844 843 843 842 841 840 840 839 838 837 836 834 833 832 830 829 828 826 824 822 820 818
847 847 847 846 846 846 846 845 845 845 845 845 844 844 844 844 844 844 845 845 845 846 847 847 847 847 846 846 846 846 846 846 846 846 846 846 845 845 845 845 846 846 846 847 847 847 847 847 848 848 848 848 848 848 848 848 848 849 849 848 848 847 846 845 845 844 844 843 842 841 841 839 838 837 836 834 833 832 830 829 828 826 824 822 820
847 847 847 846 846 846 846 846 845 845 845 846 846 845 845 846 846 847 847 847 847 848 848 848 848 847 847 848 847 847 847 847 847 847 847 847 847 847 847 847 847 847 847 848 848 848 848 848 849 849 849 849 849 849 849 849 849 849 849 848 848 848 847 847 846 846 845 844 843 843 842 840 839 838 837 836 835 833 832 830 829 827 826 824 823
846 847 847 846 846 846 846 846 846 845 845 846 846 846 846 847 847 848 849 849 849 849 848 848 848 848 848 848 848 848 848 848 848 848 848 848 848 848 848 848 848 848 849 849 850 850 849 849 849 849 849 849 849 849 849 849 849 849 849 849 850 850 849 848 848 847 846 845 844 843 843 842 841 840 838 837 836 834 833 831 830 829 827 826 825
846 846 846 846 846 846 846 846 846 845 845 846 846 846 847 847 847 848 848 849 849 849 849 849 849 849 849 849 849 848 849 849 849 849 849 849 850 849 849 849 849 850 850 851 851 851 850 850 849 849 849 850 850 850 850 850 850 850 851 851 851 851 850 849 849 848 847 846 845 844 844 843 842 841 839 838 837 835 834 833 831 830 829 828 826
845 846 846 845 845 846 845 845 845 845 845 846 846 846 847 847 847 847 848 848 849 849 849 849 850 850 850 850 850 849 849 850 850 850 850 850 851 850 851 851 851 851 851 851 851 850 850 850 850 850 850 851 851 851 851 852 852 852 852 852 852 851 851 850 849 848 847 846 846 845 844 843 842 841 840 839 838 836 835 834 833 831 830 829 828
845 846 846 845 845 845 845 845 845 845 845 846 846 847 847 847 847 848 848 848 848 849 849 850 850 850 850 851 851 850 850 851 851 851 851 851 851 851 851 851 851 851 850 850 850 850 850 850 851 851 852 852 853 853 853 853 853 853 853 852 852 851 851 850 849 849 848 847 846 845 845 844 843 842 841 840 839 837 836 835 834 833 831 830 829
846 846 846 845 846 846 845 845 845 845 845 846 847 847 847 847 848 848 848 848 848 849 849 850 850 850 850 851 851 851 851 852 852 852 852 852 852 852 852 851 851 851 851 851 851 851 852 852 852 853 853 854 854 854 854 854 854 853 853 852 852 851 851 850 849 849 848 847 847 846 845 844 843 842 841 840 839 838 837 836 835 834 832 831 830
847 847 846 846 846 846 845 844 844 845 845 846 846 847 847 847 848 848 848 848 848 849 849 849 849 850 851 851 851 851 852 852 852 852 852 852 852 852 852 852 852 852 852 853 853 853 853 854 854 854 855 855 855 854 854 854 853 853 852 852 851 851 850 850 849 849 848 848 847 846 846 845 844 843 842 841 840 839 838 837 836 834 833 832 831
847 847 846 846 846 846 846 845 845 845 845 845 846 846 846 846 847 848 848 848 848 849 849 849 849 850 851 851 852 852 852 853 853 853 853 853 853 853 853 854 854 854 854 854 854 854 854 855 855 855 855 855 854 854 853 853 853 852 852 851 851 850 850 850 850 849 849 848 848 847 846 846 845 844 843 842 841 840 839 838 837 835 834 833 832
848 847 847 846 846 846 846 845 845 845 845 845 846 846 846 846 847 847 848 848 849 849 849 849 849 850 851 852 852 853 853 853 853 853 853 853 853 854 854 854 854 855 855 855 855 855 855 855 856 855 855 855 854 853 853 853 852 852 851 851 851 850 850 850 850 850 849 849 848 848 847 846 846 845 844 843 842 841 840 839 838 836 835 834 833
847 847 847 846 845 845 845 845 845 845 845 845 846 846 846 846 847 847 848 849 849 849 849 849 850 850 851 852 852 853 853 853 853 853 853 854 854 854 854 855 855 855 856 855 856 856 856 856 856 855 855 854 854 853 852 852 852 851 851 851 851 851 850 850 850 850 850 849 849 848 848 847 847 846 845 844 843 842 841 840 838 837 836 835 834
847 847 847 846 845 845 845 845 845 844 844 844 845 845 845 846 846 847 848 848 849 849 849 850 850 850 851 852 852 852 852 852 852 852 853 853 854 854 855 855 855 856 856 856 856 856 856 856 855 855 854 853 853 852 852 851 851 851 851 851 851 851 851 851 851 851 850 850 850 849 849 848 847 846 846 845 844 843 842 841 839 838 837 836 835
846 846 846 845 845 845 844 844 844 844 844 844 845 845 845 846 846 847 847 848 848 849 849 850 850 850 851 851 852 851 851 851 852 852 853 853 854 854 855 855 855 856 856 856 856 856 856 855 854 854 853 853 852 852 851 851 851 851 851 851 851 851 851 851 851 851 851 850 850 850 849 848 848 847 846 845 844 843 842 841 840 839 838 837 836
845 844 844 843 844 844 844 844 844 844 844 844 844 844 845 845 846 846 847 848 848 849 849 849 850 850 851 851 851 851 851 851 852 852 852 853 854 854 855 855 855 855 856 856 856 855 855 854 854 853 853 852 852 852 852 851 851 851 851 851 851 851 852 852 852 852 851 851 850 850 849 849 848 847 846 845 844 843 842 841 841 839 838 838 837
Wind_Speed
25 23 21 25 28 29 30 30 31 30 30 30 30 29 27 25 22 20 19 19 18 17 17 16 15 16 15 15 16 15 14 16 15 11 10 12 13 15 17 16 17 18 17 17 18 18 18 19 18 16 16 17 16 15 17 19 20 19 17 15 11 11 17 23 17 13 18 22 22 21 20 19 17 16 17 18 18 17 16 16 15 16 17 16 16
18 20 18 20 24 27 28 29 31 30 29 30 30 29 27 25 23 23 21 19 18 17 16 15 14 15 15 15 16 16 14 16 16 13 10 10 12 14 16 16 17 17 16 16 18 17 16 18 17 14 15 17 17 17 19 20 20 19 18 16 12 13 18 25 21 16 17 22 25 24 22 21 18 17 18 20 20 18 18 18 17 16 17 17 17
3 10 12 11 13 22 27 27 29 29 28 29 29 28 28 26 25 24 22 20 18 17 16 14 13 14 15 15 16 17 15 14 15 15 13 12 12 12 13 14 15 16 17 16 16 16 15 17 16 15 16 17 17 18 19 19 19 19 19 17 13 13 22 25 21 19 19 22 26 26 25 23 18 16 18 19 19 19 20 19 19 18 18 18 19
3 11 14 9 7 14 24 26 27 27 27 28 29 28 27 27 26 24 23 22 19 17 17 14 13 15 16 16 16 16 15 14 14 13 13 14 13 12 11 10 11 14 16 16 16 16 17 17 16 16 17 17 17 18 17 17 18 19 18 16 15 14 22 25 23 21 21 23 26 27 28 25 20 17 18 20 21 21 20 19 19 20 20 20 21
9 15 18 17 13 13 21 28 27 26 29 29 29 29 27 26 26 25 24 22 19 18 17 15 15 16 14 14 15 14 12 13 14 13 13 13 13 13 13 12 12 12 14 15 14 15 18 18 17 18 18 17 17 18 17 15 16 17 15 15 17 14 17 22 24 22 21 25 26 27 27 25 22 21 21 23 25 25 23 22 22 21 21 22 23
13 17 20 23 19 15 18 27 28 26 29 31 29 28 27 26 25 24 23 22 20 19 17 15 15 15 15 15 16 14 13 14 14 12 12 14 13 13 14 14 14 13 14 15 14 15 19 18 17 18 18 18 18 15 13 12 14 16 13 15 18 15 14 19 24 21 21 23 24 25 28 26 23 24 25 26 27 28 28 27 26 25 24 25 26
10 16 20 23 21 16 15 19 26 28 28 30 30 28 27 26 25 24 22 21 21 19 18 17 15 15 17 18 17 16 15 15 14 11 11 13 15 14 12 13 14 14 14 15 14 16 18 16 16 17 18 19 16 12 8 6 10 12 7 12 18 17 14 17 22 21 18 18 17 20 25 27 24 23 26 28 28 28 30 29 29 29 28 28 29
6 12 15 16 17 19 15 14 18 28 29 29 29 28 27 26 24 23 22 21 20 18 18 18 18 18 20 20 18 18 18 16 12 10 11 12 14 13 12 11 13 16 17 17 15 15 14 13 12 14 17 17 12 10 8 4 5 8 3 4 15 18 15 17 20 20 16 15 16 16 18 23 24 21 20 25 27 27 28 29 28 29 30 30 31
7 10 11 11 12 18 17 13 13 22 28 30 29 27 26 25 24 23 22 21 19 18 19 21 23 24 23 22 22 21 20 18 13 11 10 11 12 12 13 14 15 17 17 17 17 17 14 12 11 11 14 14 10 9 9 5 4 7 6 4 8 13 14 14 15 15 13 10 12 14 14 19 24 21 17 21 26 26 27 29 29 29 30 31 31
7 11 12 12 13 16 18 16 15 16 19 26 27 26 25 25 25 25 22 21 19 19 22 24 25 25 23 22 22 21 21 19 16 13 11 9 8 9 10 12 14 16 16 16 18 18 15 13 12 11 12 11 9 9 9 5 3 5 6 5 7 10 11 10 10 9 8 7 5 6 8 11 15 17 15 17 20 21 23 27 27 25 25 25 24
4 8 13 13 12 15 18 18 20 16 15 21 25 25 25 26 26 25 22 22 21 21 23 25 24 23 22 21 20 19 19 18 17 15 13 10 8 8 8 9 11 11 13 15 17 17 17 16 15 13 12 10 8 7 7 5 4 4 5 5 4 5 7 7 6 5 5 6 4 3 2 1 2 4 6 8 9 10 13 16 17 17 18 17 14
12 5 7 12 11 15 17 16 19 21 21 23 23 24 26 27 25 24 23 23 23 23 25 25 22 21 20 19 18 18 17 16 15 15 14 13 10 9 9 9 7 7 9 13 16 18 19 19 17 15 13 11 9 7 6 6 5 3 4 4 3 3 3 3 3 2 1 1 0 1 1 2 3 3 3 4 5 7 8 9 11 12 13 14 14
22 17 9 6 11 17 17 13 15 19 21 22 21 23 27 28 25 25 25 25 25 25 25 23 22 20 19 17 17 17 16 15 13 13 13 13 12 11 10 9 9 10 11 14 19 22 22 20 18 16 14 12 10 9 7 7 7 6 6 6 5 4 3 2 1 1 2 4 5 5 6 6 8 8 8 9 10 11 11 11 12 12 13 14 15
31 27 22 14 1 12 17 16 14 16 19 21 20 22 26 28 27 28 28 26 26 26 24 23 22 20 18 18 17 16 16 14 13 13 12 11 12 13 12 13 15 17 18 19 20 21 21 20 19 17 15 13 12 10 10 9 10 9 9 8 8 7 6 4 3 2 3 4 6 7 8 8 10 11 11 12 12 13 13 14 14 15 16 17 18
36 34 30 25 18 9 10 17 19 18 20 23 23 23 27 30 30 30 29 28 26 25 24 23 22 21 19 19 17 16 15 14 12 12 12 11 12 14 14 16 18 19 20 21 20 19 18 17 17 16 15 14 12 11 10 9 9 8 8 7 7 5 5 4 2 1 2 3 5 7 8 8 10 11 11 12 13 13 14 15 16 18 20 21 22
35 36 34 30 28 24 19 19 23 23 24 26 26 24 25 30 32 31 30 28 26 24 23 22 22 21 20 19 18 17 15 13 13 13 13 13 14 15 15 16 18 20 21 21 20 18 16 15 15 14 13 13 11 9 8 6 5 5 4 4 4 4 3 3 1 1 3 4 6 8 9 10 10 11 12 13 14 15 17 19 20 22 23 23 23
32 33 33 33 34 32 28 25 26 27 27 28 28 25 25 28 30 31 31 28 26 25 23 22 21 20 19 18 18 18 16 14 13 14 14 14 15 17 18 18 18 20 21 21 19 18 16 14 13 12 12 11 9 7 5 3 2 2 2 1 1 1 0 1 2 3 4 6 7 8 9 11 12 13 14 14 16 17 19 21 23 24 24 22 21
31 31 31 33 37 37 33 28 27 31 32 30 28 27 26 27 28 29 29 28 26 25 23 22 21 20 19 18 18 18 18 15 14 14 15 15 17 19 20 20 20 21 21 20 19 17 16 14 12 11 10 9 7 5 4 3 3 3 4 4 4 5 6 7 8 9 9 10 10 11 12 13 14 16 16 17 18 18 20 22 23 23 23 21 21
30 30 30 33 37 37 35 31 28 32 34 31 28 28 26 26 28 28 28 27 26 24 22 22 21 19 18 18 17 18 19 17 14 13 14 16 19 22 23 23 23 21 20 20 18 16 14 13 11 11 9 8 6 5 5 5 5 6 7 8 8 8 8 10 11 12 13 14 15 16 16 17 19 20 20 21 21 20 20 21 22 23 25 25 25
29 30 31 34 36 36 35 32 30 33 35 32 28 27 25 25 26 26 25 25 24 23 21 20 20 19 18 17 17 17 17 16 14 12 12 14 15 18 21 24 24 22 20 18 16 14 12 10 9 9 7 6 5 6 6 7 8 8 8 8 8 8 9 9 10 11 13 14 15 16 17 17 19 19 20 20 20 18 17 18 20 23 25 27 27
29 30 32 34 34 34 34 33 32 34 34 32 29 28 25 24 24 23 22 21 21 20 19 19 20 21 20 19 20 19 17 15 14 12 12 12 11 12 16 20 20 19 17 15 13 11 9 8 7 6 6 6 7 8 8 8 8 7 6 6 6 7 8 9 10 11 12 12 13 13 14 14 15 16 16 16 15 15 15 16 18 20 22 25 27
29 31 32 32 32 32 32 32 32 33 32 30 30 29 26 24 22 21 20 19 18 18 18 19 21 23 22 22 22 22 20 18 16 15 13 12 11 10 13 15 15 14 14 13 10 8 7 6 6 6 6 7 7 7 7 7 6 6 6 6 7 8 9 10 11 12 13 14 14 15 16 18 19 19 18 17 16 15 16 16 15 17 18 20 22
25 27 29 30 31 31 30 29 28 29 28 27 27 28 27 25 23 21 18 16 15 16 17 19 21 23 22 22 22 21 20 20 19 18 16 15 14 12 12 13 13 12 12 11 8 7 6 6 7 6 5 6 7 7 8 9 9 9 8 7 8 8 9 10 12 12 13 15 16 17 18 20 21 20 19 18 16 15 15 15 16 17 19 20 20
23 23 24 25 26 27 27 27 26 25 24 23 23 24 24 25 24 22 19 16 14 13 14 17 19 20 20 21 20 19 18 19 20 19 18 16 15 15 14 13 12 11 11 12 10 8 6 6 8 9 10 11 11 11 10 10 10 9 9 9 9 10 11 12 13 14 15 16 17 18 18 19 18 18 18 17 17 16 16 17 18 20 21 22 22
23 21 20 20 21 22 22 23 22 21 20 20 21 20 19 19 20 18 16 16 16 14 12 12 14 16 18 19 18 16 16 16 16 16 15 14 13 13 13 12 11 11 12 12 11 9 8 9 12 13 13 12 12 12 12 12 13 13 12 12 13 13 14 14 15 15 16 17 17 17 18 18 17 17 17 17 18 19 20 21 22 23 24 25 24
20 20 19 16 16 18 19 19 19 18 18 18 18 17 15 15 15 13 11 12 14 15 15 14 14 16 17 16 15 14 13 14 14 13 13 11 10 10 10 10 10 11 12 12 11 10 11 13 13 13 13 13 13 14 15 15 15 16 16 16 16 16 16 17 17 18 17 17 17 17 17 18 17 17 18 19 20 21 23 25 26 27 28 29 27
16 18 19 16 13 13 15 16 15 15 16 17 15 13 12 10 10 10 10 10 12 13 15 17 18 19 17 15 14 13 12 12 13 14 14 12 10 9 9 9 10 11 12 12 13 14 15 14 14 14 15 16 15 15 14 14 14 14 15 15 15 15 15 16 17 18 18 18 18 18 19 19 19 20 21 21 21 20 21 23 25 26 27 28 28
15 15 17 17 14 12 12 14 14 14 15 16 16 14 12 10 10 10 10 11 12 13 15 17 18 17 15 14 13 12 13 13 14 15 15 14 13 11 10 10 10 11 13 14 15 16 16 17 17 17 17 16 16 15 14 14 15 15 15 15 15 15 14 14 15 17 18 18 19 20 21 22 22 23 24 23 22 21 20 20 22 24 25 25 25
15 15 15 15 13 11 9 10 12 14 15 15 15 15 14 13 13 13 13 12 12 11 12 15 15 13 12 13 12 12 13 14 14 14 13 13 13 12 12 12 12 12 14 15 16 16 16 17 17 17 17 17 17 17 17 16 16 16 16 16 16 16 15 16 17 18 19 19 20 21 22 23 24 24 25 25 25 24 23 21 20 21 22 22 22
15 15 15 14 12 9 8 8 7 9 13 15 15 15 15 15 15 15 16 15 13 12 12 13 13 11 10 12 12 12 13 13 13 13 12 12 12 12 12 13 13 13 13 13 14 15 17 18 20 20 19 19 19 19 18 17 17 17 17 17 17 16 16 17 18 18 19 20 21 22 22 23 24 24 24 25 25 25 24 22 19 18 18 19 21
14 12 13 15 13 9 8 8 6 7 9 13 15 16 15 15 15 15 16 15 15 14 14 14 13 13 12 13 13 13 12 12 11 11 11 10 10 10 10 11 13 15 15 14 15 17 19 21 22 22 21 21 20 19 18 18 18 18 17 17 17 16 16 16 17 18 19 20 20 21 21 21 22 23 24 25 25 25 25 23 20 17 16 17 19
14 12 13 16 15 11 11 13 12 8 8 10 12 14 15 16 15 14 15 15 16 16 17 16 16 15 14 13 13 13 12 11 10 10 9 9 8 7 8 10 13 17 18 18 20 21 21 21 21 21 20 20 19 18 18 18 18 18 17 17 17 16 16 16 16 17 19 19 19 19 20 21 22 23 24 24 25 25 25 23 21 18 16 16 17
11 12 15 18 17 15 13 14 16 15 10 7 8 8 10 13 15 15 14 14 16 19 20 19 18 17 17 16 14 13 12 11 11 10 8 8 7 7 7 10 15 18 18 18 19 20 20 20 20 19 19 18 17 16 17 17 17 16 16 16 16 15 14 15 17 17 17 17 18 19 20 21 22 23 24 24 24 24 24 23 21 18 16 16 16
10 11 15 17 16 14 13 12 12 13 12 9 5 3 3 6 11 14 14 14 15 17 19 21 20 18 18 18 17 16 14 13 13 12 10 11 12 12 12 14 17 19 19 18 18 18 19 19 19 18 18 17 16 14 14 14 14 15 15 15 14 14 14 16 17 17 17 18 19 20 21 21 22 23 23 23 23 22 22 21 21 19 17 15 14
9 9 11 13 13 12 12 10 8 8 9 12 14 13 9 4 7 10 12 14 15 15 16 18 19 17 16 15 15 15 14 13 13 14 14 15 15 15 17 19 19 18 19 19 18 17 16 17 17 16 15 16 16 14 14 13 14 14 15 15 14 13 14 15 16 16 17 17 18 19 19 19 20 19 19 18 19 20 20 20 19 19 18 16 13
8 8 9 10 10 10 9 9 8 8 9 12 13 14 15 12 7 9 10 11 12 14 15 15 15 15 14 12 10 10 11 12 11 13 15 15 14 14 17 20 19 17 18 19 18 17 15 14 14 13 13 15 15 14 14 14 14 14 15 15 14 13 13 15 15 15 16 16 16 17 16 17 17 16 16 16 16 17 18 18 17 17 17 16 15
6 7 8 8 7 8 8 8 8 8 8 10 10 12 16 17 14 15 14 11 10 12 14 14 13 13 13 12 9 10 12 11 9 9 11 13 14 16 18 19 18 17 16 16 16 16 15 14 12 11 12 15 15 14 14 13 13 13 14 14 13 13 14 15 15 15 16 15 15 15 15 15 15 16 15 16 16 17 17 17 17 17 17 16 16
4 6 7 6 7 8 6 5 6 7 6 5 7 11 15 17 16 16 17 15 14 15 14 12 13 14 14 13 12 12 12 10 9 9 9 11 13 15 16 16 16 16 15 13 13 13 13 12 9 8 10 14 14 13 13 13 11 11 11 12 13 15 16 17 17 17 16 15 14 14 14 14 14 14 15 16 16 17 16 17 17 17 17 16 16
2 4 4 4 7 8 5 5 7 9 7 6 7 10 14 17 17 15 14 15 16 16 14 13 14 14 12 11 11 11 11 12 13 13 12 11 12 13 13 13 13 13 12 12 12 11 10 9 7 6 8 10 11 11 12 11 10 10 10 11 14 16 15 15 16 16 15 15 15 14 15 15 15 14 14 15 16 16 16 16 16 16 17 16 15
2 2 4 5 5 5 4 3 4 6 7 8 9 9 11 14 15 15 13 13 12 12 12 14 15 13 11 10 11 12 13 15 15 14 13 12 11 11 11 11 10 10 9 9 10 10 10 9 8 8 9 10 11 11 11 10 10 9 9 9 11 12 11 10 11 12 13 13 14 14 15 15 15 15 15 15 15 15 15 15 15 15 16 16 14
2 1 4 5 5 7 7 3 3 5 8 9 9 8 8 8 9 10 12 11 10 10 12 14 13 11 10 11 12 13 15 16 15 14 13 12 11 11 11 11 9 8 8 9 10 10 9 9 9 10 11 11 11 11 10 9 9 8 8 8 8 7 7 7 9 10 11 11 11 12 14 14 14 15 15 14 14 15 15 15 16 16 15 15 15
2 2 5 5 8 11 7 1 5 7 9 10 9 8 9 7 6 7 9 9 8 9 12 13 13 12 11 11 11 12 13 14 14 13 12 11 10 10 11 10 9 9 8 9 10 10 9 10 12 12 11 10 10 10 9 8 7 7 7 7 6 6 6 8 9 12 13 11 10 11 12 14 14 14 13 13 14 14 15 15 15 16 15 15 15
1 2 6 7 11 12 3 8 9 8 9 11 9 9 9 8 7 7 8 7 7 9 11 13 13 12 11 9 8 9 10 11 12 12 11 10 10 10 9 9 10 11 10 9 9 8 9 11 13 13 12 11 10 8 8 8 7 6 5 5 4 4 6 8 10 13 14 13 11 10 12 14 14 12 12 12 12 13 14 14 14 14 14 13 14
1 2 5 8 12 9 3 11 10 9 10 10 9 9 9 8 7 7 6 7 8 9 12 13 12 12 11 9 8 9 9 10 10 9 9 9 9 10 10 10 10 10 10 9 8 8 8 9 10 10 10 8 7 7 7 6 4 3 2 2 2 2 4 6 8 10 12 13 12 11 11 12 14 13 11 10 11 12 13 13 13 13 13 12 12
3 2 5 9 12 4 9 12 9 10 12 10 8 8 8 6 5 4 4 4 5 7 9 10 9 8 9 9 8 9 9 8 7 7 7 7 8 8 8 8 7 7 7 7 6 6 6 7 8 8 7 5 4 4 4 3 2 1 2 3 2 1 3 5 6 7 9 10 10 10 10 11 13 14 12 11 12 14 15 14 12 11 11 12 11
3 0 3 9 11 2 9 13 11 11 12 9 8 8 7 5 5 3 2 3 3 4 6 6 5 6 6 6 5 6 7 8 7 6 5 5 6 7 7 5 5 5 6 6 5 5 5 6 7 7 6 4 3 3 4 4 2 1 4 5 2 1 1 2 3 5 7 8 8 9 9 10 11 11 11 10 12 14 16 15 13 10 9 12 13
2 1 3 8 10 7 1 10 13 12 10 9 9 9 8 6 5 3 2 2 2 5 7 6 6 7 7 5 5 5 5 5 5 5 4 3 4 7 6 4 3 4 5 5 5 4 5 5 5 5 4 3 2 1 1 1 2 3 4 4 3 2 1 1 2 4 6 7 7 8 9 9 10 10 10 10 10 12 14 15 15 12 9 11 15
2 1 3 5 6 9 5 6 15 14 11 11 10 8 7 7 6 4 3 1 2 3 6 8 8 9 7 6 5 5 3 2 3 4 5 5 3 5 6 6 5 5 4 5 5 4 3 4 5 4 3 3 2 2 2 3 3 3 3 3 3 2 2 2 3 4 5 5 5 6 7 8 9 9 9 8 9 11 12 14 14 13 11 11 13
1 2 5 6 5 6 7 1 12 15 11 9 9 8 8 8 7 6 5 2 1 2 6 9 10 8 6 5 5 4 3 4 4 4 6 8 5 4 6 7 7 6 5 4 4 4 4 4 3 2 1 1 2 3 2 2 2 2 2 3 3 3 2 2 3 4 5 5 4 5 6 7 8 9 9 8 8 10 12 13 12 11 10 10 11
4 7 10 9 6 4 6 3 6 11 10 8 9 10 9 8 8 7 5 2 1 2 5 8 9 7 5 3 4 5 6 6 5 5 8 10 8 5 5 6 7 7 5 3 3 3 3 3 2 1 2 3 4 4 3 3 3 3 3 3 3 3 2 1 3 4 5 5 4 4 5 6 6 8 9 9 8 10 12 12 11 10 9 8 7
10 12 9 5 7 6 4 3 2 9 11 9 8 10 10 8 8 8 6 3 3 2 4 6 8 7 5 3 4 5 6 7 7 8 10 12 9 5 4 6 8 7 5 4 4 3 3 2 1 1 4 5 5 5 5 5 4 4 4 3 3 3 3 3 3 3 4 5 4 4 5 6 6 7 9 9 9 9 11 12 12 10 8 7 5
Wind_Direction
249 239 215 192 182 178 174 169 167 165 162 160 156 152 151 151 149 147 146 146 148 146 146 149 146 145 148 149 149 151 152 153 156 158 162 165 171 178 179 178 181 183 183 185 190 192 192 192 189 187 190 192 195 201 200 199 200 205 214 212 215 231 202 174 161 158 169 181 187 188 189 186 185 191 193 189 189 192 195 196 199 203 204 205 206
247 234 219 201 185 178 175 170 166 163 160 158 154 152 152 149 147 146 146 146 148 148 147 149 150 152 155 157 155 153 152 156 161 162 164 168 169 173 176 173 173 179 180 183 186 184 184 186 186 190 195 196 198 199 198 200 202 209 214 213 230 236 199 175 166 160 161 174 182 183 185 188 188 191 194 192 192 196 197 198 204 211 217 219 220
268 213 213 226 203 179 174 170 166 162 158 156 155 153 151 148 147 148 146 146 146 147 147 145 150 155 154 156 158 156 151 154 163 165 168 175 174 173 178 176 174 178 177 178 181 181 181 184 185 190 194 197 199 196 195 200 204 208 208 212 233 219 187 179 174 165 160 168 178 181 182 189 196 196 196 195 197 200 202 204 208 212 219 223 227
112 176 193 222 231 188 173 168 167 163 159 158 156 153 151 150 150 147 145 148 149 147 147 144 144 143 140 143 150 152 151 154 160 161 163 171 176 178 180 179 179 178 173 174 181 184 184 183 186 190 189 194 198 195 195 198 200 205 209 223 237 206 179 183 183 172 163 167 180 187 185 191 203 205 200 199 202 206 208 213 215 216 221 225 229
169 178 185 188 200 205 180 170 170 167 161 159 156 154 152 152 150 145 145 149 147 143 143 142 140 140 143 147 146 145 150 158 162 162 163 165 169 179 184 182 182 180 176 180 186 187 183 182 185 187 188 193 195 194 199 204 206 209 219 237 235 204 178 185 187 182 175 170 178 190 191 193 201 205 205 204 205 207 210 216 221 224 227 230 233
176 181 185 186 196 218 197 176 173 169 162 158 156 155 154 152 148 145 145 143 139 138 139 140 143 148 153 152 149 149 152 158 158 156 164 168 167 172 178 178 178 180 183 190 192 186 183 183 184 186 190 193 191 192 201 213 216 217 236 248 227 192 171 184 190 190 189 181 178 187 195 197 198 202 208 210 208 207 209 215 221 227 230 231 234
177 184 187 189 193 210 216 191 173 166 162 160 158 156 154 152 148 146 144 141 139 141 146 149 149 149 150 150 154 156 150 149 148 131 132 158 169 170 170 175 184 188 186 187 189 184 180 182 185 187 190 189 189 191 191 202 214 213 241 251 219 187 159 173 188 190 189 191 190 188 196 203 203 203 210 215 214 211 211 212 218 226 232 235 237
205 203 203 205 196 190 211 229 187 167 163 162 160 157 154 151 149 147 144 142 141 143 149 150 142 138 143 146 148 150 146 148 153 133 115 128 145 147 139 143 164 177 181 183 185 181 171 168 176 186 189 188 191 198 189 165 180 178 148 229 209 191 163 160 178 184 182 196 206 198 198 208 212 212 211 209 210 213 215 215 218 225 230 233 239
242 234 235 245 221 190 198 233 209 172 164 162 161 159 154 151 150 148 145 143 140 136 137 139 135 132 135 136 134 136 138 140 144 140 129 123 124 121 114 113 123 137 152 166 174 172 159 150 156 168 183 190 194 199 195 172 138 142 118 109 163 169 160 152 160 167 167 182 200 196 197 208 214 217 212 202 205 216 221 220 225 234 235 234 238
254 245 249 256 242 218 209 205 192 179 166 161 162 160 155 150 147 146 144 142 139 133 132 134 134 133 131 130 129 127 127 128 129 132 137 140 137 128 117 114 118 120 128 141 152 156 148 142 147 157 172 184 184 184 189 184 137 118 118 119 124 132 141 139 129 132 134 127 144 174 189 201 208 217 223 218 216 220 218 217 225 235 236 234 236
314 250 251 258 243 221 213 195 180 181 173 161 159 158 154 149 144 143 143 141 139 137 135 134 133 133 130 128 128 127 123 123 125 126 129 140 152 154 141 128 126 131 138 141 145 149 147 143 148 156 159 159 154 152 156 162 158 123 118 132 135 124 128 128 119 112 111 107 99 95 104 138 193 225 246 247 239 234 228 230 237 235 227 228 237
18 352 271 262 233 197 196 192 175 171 170 162 158 156 153 148 145 144 141 140 139 137 136 135 133 132 132 129 126 126 127 127 129 128 128 128 128 140 157 156 144 147 156 159 156 149 144 143 144 145 145 144 142 137 131 131 136 131 113 112 126 140 133 120 125 136 142 150 185 357 344 318 320 320 315 316 309 299 293 286 279 268 255 252 258
32 28 14 290 230 197 191 188 167 161 165 164 159 155 151 148 146 142 138 138 138 135 135 135 133 131 132 130 126 126 129 132 139 142 137 125 112 112 127 136 129 120 126 149 157 147 139 142 141 133 132 138 140 135 128 117 111 108 101 89 77 71 62 42 33 331 303 305 307 308 309 308 305 304 309 313 312 312 313 310 306 304 299 290 282
37 32 29 24 342 198 193 185 169 158 158 158 154 148 143 141 138 136 136 137 135 133 133 133 130 129 130 129 127 124 125 129 140 153 154 136 116 106 105 111 114 108 107 122 139 140 138 140 135 125 124 128 129 128 127 123 118 115 110 98 80 63 56 53 47 21 330 316 313 308 310 310 303 302 305 305 303 304 303 302 301 300 298 295 290
42 36 31 35 47 75 142 154 153 145 138 138 137 132 129 129 129 129 130 131 130 130 131 130 128 126 127 130 129 121 116 119 129 144 153 146 126 112 107 109 109 106 106 112 121 127 132 134 127 123 125 124 121 125 129 130 130 126 119 107 92 77 69 66 62 10 296 292 292 290 291 292 291 291 293 295 296 297 294 294 294 293 291 289 285
43 42 36 36 48 57 70 101 118 119 118 120 118 112 113 119 123 124 123 121 122 123 124 124 124 122 122 128 128 118 110 112 118 125 135 140 133 121 116 113 109 108 111 114 118 120 122 126 124 122 122 116 112 115 123 132 137 132 128 112 90 89 108 118 144 230 254 260 261 264 267 269 273 274 276 280 283 285 287 287 285 285 288 287 283
41 45 42 40 47 52 53 67 87 95 97 102 103 100 101 106 114 120 120 116 115 116 116 115 116 116 117 120 122 116 108 106 111 115 121 132 134 126 122 119 113 112 114 116 119 118 113 114 118 118 115 106 96 95 99 106 116 104 92 79 51 28 313 219 232 243 256 263 263 264 266 269 273 274 275 278 280 284 290 290 288 287 288 285 280
38 43 46 48 52 53 49 51 68 80 80 80 86 93 96 97 103 112 115 112 111 112 113 112 110 109 109 110 113 112 105 102 108 111 109 118 126 124 122 119 113 113 115 115 116 116 109 105 104 102 102 96 84 78 71 56 49 46 26 1 345 328 311 301 291 282 278 276 274 273 273 275 279 282 282 283 285 291 295 297 297 294 287 279 275
42 43 46 52 57 60 55 48 53 70 75 72 74 82 87 92 98 104 107 109 110 111 112 109 104 101 101 102 105 106 103 99 104 111 107 107 113 115 117 116 111 109 110 109 108 107 102 96 93 90 89 86 76 63 50 33 16 6 354 344 340 332 320 315 310 305 299 294 291 287 284 283 285 289 291 290 292 296 300 304 305 296 285 279 277
49 49 51 55 58 61 60 53 50 61 70 70 70 74 78 82 88 93 98 103 105 106 106 103 99 95 95 95 95 96 97 94 94 102 107 105 105 108 110 110 109 108 109 108 106 103 97 88 82 77 71 63 44 23 11 3 358 356 352 349 347 340 334 333 331 329 326 322 317 312 308 304 304 305 305 303 302 301 301 306 309 302 291 284 280
52 53 54 56 58 58 58 55 53 58 64 67 67 69 71 74 79 84 88 94 97 99 100 100 97 93 90 89 88 86 87 89 89 92 99 101 103 105 103 104 109 114 113 110 108 105 97 83 67 51 31 15 3 358 360 3 6 10 9 6 4 358 356 358 359 359 355 347 343 342 341 341 342 339 335 331 330 327 320 318 321 320 310 296 287
52 53 53 53 55 56 55 55 55 57 61 63 64 64 66 69 74 79 82 87 92 97 101 104 101 94 88 85 84 82 81 82 83 84 87 91 95 98 98 99 107 116 116 113 109 97 78 61 43 24 8 6 7 8 17 27 36 43 43 39 35 30 25 20 16 13 11 8 7 5 2 358 354 351 348 345 345 345 340 336 337 343 338 319 302
55 54 54 53 53 54 55 56 57 58 59 60 60 60 61 65 70 74 77 82 92 103 107 107 103 97 91 86 83 81 80 80 80 78 79 81 83 86 91 95 101 110 112 108 99 83 68 57 50 42 36 46 59 63 61 62 62 57 50 41 36 32 27 22 19 17 15 10 5 1 360 358 356 355 354 352 350 350 345 338 334 337 341 340 333
58 58 58 58 57 55 55 56 58 58 59 60 59 56 56 61 66 71 72 73 86 107 114 111 108 104 99 92 85 81 82 81 79 76 75 78 82 83 85 89 92 96 97 92 85 76 67 60 66 78 84 83 81 76 69 64 58 49 41 33 28 25 22 19 16 9 4 0 358 359 3 5 5 6 4 358 352 347 339 333 330 328 330 337 342
53 55 59 64 66 64 62 61 60 58 55 57 60 58 55 55 59 67 71 67 70 86 98 106 116 120 113 101 90 85 83 78 73 71 72 77 84 87 87 88 88 87 86 82 73 64 66 76 81 83 82 78 73 68 63 61 58 55 54 52 47 41 35 28 21 13 10 9 10 11 11 11 8 6 1 353 347 343 337 333 330 327 326 329 334
49 48 51 61 69 70 71 71 69 64 59 57 59 61 61 60 60 67 79 75 70 75 76 78 95 113 116 108 97 91 84 73 65 64 68 75 88 97 96 90 83 79 76 74 70 73 84 89 83 76 72 70 70 71 71 69 67 64 62 59 54 50 45 40 34 30 27 24 22 17 13 9 2 355 352 350 349 347 342 336 332 330 330 331 332
54 50 47 53 65 70 75 79 80 78 73 71 73 76 78 83 84 83 88 90 88 87 83 80 88 100 106 105 99 91 79 68 62 61 63 70 82 93 96 88 79 76 77 78 80 83 86 81 75 77 81 80 78 76 70 64 59 54 50 46 42 39 39 37 34 33 29 22 16 9 3 357 352 349 348 348 349 349 345 340 335 332 333 334 333
59 57 51 54 65 73 80 85 87 89 87 82 83 87 93 103 109 100 88 86 89 93 93 90 92 99 101 97 93 84 71 63 62 62 63 70 77 83 87 84 80 82 85 83 81 80 78 75 75 77 79 77 71 64 56 51 47 43 38 34 30 27 26 22 21 21 17 9 4 0 355 351 349 347 344 342 342 341 339 337 333 328 329 332 330
49 48 46 50 60 71 86 96 94 93 95 92 86 84 87 94 100 96 87 81 82 88 91 89 89 95 96 88 82 79 73 66 66 69 72 76 79 80 80 77 78 84 86 83 80 77 73 70 70 69 68 66 62 57 52 49 46 43 40 36 32 29 25 22 19 15 8 3 1 358 355 352 348 345 342 339 337 335 333 330 326 321 321 323 321
35 31 29 31 36 52 77 100 110 103 98 97 96 94 90 88 90 93 91 88 87 85 81 77 74 76 84 86 83 82 79 74 73 77 81 84 82 77 75 76 78 80 83 84 82 78 75 73 73 70 67 65 62 58 54 50 47 45 40 36 33 30 25 21 16 9 2 0 360 356 353 352 350 348 348 346 344 344 345 340 331 321 315 314 313
28 24 23 24 24 37 62 76 101 129 122 109 103 104 102 94 88 88 90 90 90 87 83 80 77 72 75 83 85 84 82 79 78 83 88 87 79 71 71 76 75 71 75 83 84 80 79 78 74 68 64 62 60 56 52 48 45 43 40 37 37 32 25 20 13 5 0 357 356 355 356 359 359 359 359 358 354 353 352 349 342 331 320 315 312
26 32 30 25 27 44 60 58 61 83 127 133 117 107 108 107 101 96 95 92 89 87 83 82 83 81 79 82 86 86 84 80 80 84 83 74 66 70 78 80 74 72 75 81 81 79 76 73 68 62 59 58 56 53 50 47 45 44 42 41 38 31 25 21 11 2 0 1 3 7 11 11 10 9 7 4 1 358 355 353 348 338 327 320 314
17 32 30 26 34 53 62 56 53 58 74 123 145 136 122 118 115 113 109 100 91 87 83 80 82 86 85 83 84 87 87 83 77 73 64 53 57 79 94 85 77 76 77 77 75 73 71 68 65 61 58 54 49 44 43 43 43 43 42 40 36 30 23 14 6 3 10 17 21 23 21 17 16 14 11 7 4 1 359 360 359 351 340 330 322
5 20 27 32 43 52 51 44 48 57 57 53 60 93 129 142 136 127 121 114 100 90 85 83 84 84 80 75 74 78 79 76 70 65 62 63 71 84 93 90 85 81 76 73 72 71 69 67 64 61 58 53 47 45 45 43 40 42 42 39 34 26 16 10 12 19 26 29 27 24 22 19 18 16 13 11 8 6 6 8 10 8 2 353 342
20 25 30 35 41 43 41 39 49 66 58 41 36 39 47 91 150 143 131 123 113 100 93 86 80 75 71 66 63 66 67 66 64 65 67 73 81 89 91 88 86 82 76 71 70 70 68 66 64 62 58 54 54 58 58 48 42 46 47 38 29 23 20 22 29 33 30 27 25 24 22 20 19 18 16 16 16 16 16 16 17 18 17 18 20
38 37 25 23 25 29 38 51 63 70 60 45 39 39 40 51 99 134 136 133 124 113 104 90 72 63 63 55 47 58 67 63 58 61 65 70 78 85 85 83 82 81 76 70 68 69 68 65 65 65 62 59 60 59 54 49 50 55 50 37 29 31 32 31 33 33 28 27 28 27 24 24 23 21 21 23 25 25 23 22 25 28 27 29 36
29 19 11 12 20 28 42 63 74 70 56 44 40 42 44 53 80 103 107 117 133 125 109 89 65 56 56 52 56 79 85 74 61 61 67 71 75 77 79 81 82 82 77 70 65 66 65 62 63 68 66 64 63 58 54 58 64 61 47 35 35 41 43 39 38 36 34 34 34 31 29 29 28 26 26 28 29 29 27 26 27 31 35 41 45
24 12 14 22 24 26 40 64 64 60 64 57 50 55 60 66 77 83 81 89 109 118 110 90 67 58 62 68 79 92 96 87 77 72 70 69 70 70 73 78 79 78 78 75 66 61 60 58 57 67 71 69 69 67 64 67 69 61 48 43 48 53 54 54 53 51 46 43 41 36 32 29 27 27 28 29 29 30 30 29 29 29 34 40 43
16 7 13 13 15 24 45 71 62 59 74 93 82 70 71 77 81 77 71 77 93 100 94 79 67 64 70 78 81 88 96 92 83 80 77 73 69 65 65 68 69 69 73 77 72 66 63 57 54 74 88 83 79 78 74 73 72 61 52 53 57 56 56 57 56 54 52 49 47 44 40 35 32 29 27 26 27 27 27 29 30 29 29 32 38
41 352 330 330 350 9 21 46 60 61 77 94 94 82 75 79 85 84 74 73 84 88 77 66 64 67 72 72 70 78 90 91 85 80 77 73 70 66 63 63 63 63 70 80 81 74 67 59 66 94 107 98 87 80 76 75 74 65 56 61 62 54 46 45 45 42 42 42 42 41 39 35 33 33 31 29 28 27 27 30 32 30 27 28 31
48 265 274 304 332 335 331 343 75 90 96 103 103 98 94 91 92 92 85 78 83 91 83 72 72 75 74 71 76 84 88 88 83 76 71 71 74 75 74 72 71 74 86 96 91 78 65 64 81 103 110 100 91 85 79 78 80 72 62 63 60 45 32 30 28 22 20 20 20 25 28 26 25 27 28 28 29 29 30 31 31 30 30 28 25
25 256 264 292 325 329 324 135 128 117 116 116 110 105 110 109 101 102 100 87 81 93 95 87 85 86 79 72 77 80 75 73 75 73 71 75 79 78 79 77 68 69 91 106 97 79 70 74 85 94 100 100 95 87 78 79 91 90 77 70 63 49 39 38 35 31 28 22 12 11 13 12 11 14 15 16 20 23 24 24 23 23 25 25 23
128 245 267 285 314 324 325 142 133 116 115 115 103 94 100 104 102 105 107 92 79 92 104 101 95 93 88 74 65 63 59 64 73 76 73 72 71 72 80 81 67 62 73 92 95 86 82 86 88 88 92 99 100 91 77 73 80 92 93 86 73 55 47 46 45 41 37 33 28 21 15 10 8 7 5 4 6 9 12 15 16 15 15 16 17
157 248 254 284 315 327 138 140 126 113 119 117 101 90 89 90 95 102 105 97 91 100 112 111 99 93 89 76 62 60 66 71 79 82 77 71 69 71 74 74 66 60 60 68 83 91 91 95 98 96 93 96 103 105 94 79 71 85 84 51 43 58 54 48 44 40 36 33 31 29 27 27 29 31 27 17 7 4 4 5 5 8 12 14 16
354 281 259 299 323 337 148 144 126 122 130 126 110 105 101 90 89 97 94 89 94 108 116 111 96 85 82 74 67 72 76 75 79 89 88 79 77 83 85 78 73 67 57 58 80 101 103 108 118 117 106 89 87 113 132 137 137 106 1 351 355 58 53 40 38 36 34 34 33 31 30 32 38 43 41 30 19 17 16 11 3 3 13 20 21
26 129 280 313 326 338 154 153 142 135 139 138 130 129 126 110 100 106 90 63 85 136 136 117 98 92 87 80 85 93 85 74 76 95 105 91 79 88 101 100 85 77 68 62 76 104 116 125 133 131 123 108 88 113 149 165 171 352 355 0 16 85 57 33 31 28 29 32 35 34 30 28 32 38 36 27 20 21 22 21 15 9 15 20 19
37 52 312 317 326 337 141 158 154 148 148 150 144 138 134 124 114 128 139 90 106 155 157 139 128 127 117 107 113 112 92 79 83 97 123 137 92 86 104 129 121 97 83 71 69 84 108 125 135 140 146 161 181 185 181 205 302 335 354 21 59 102 99 31 25 23 28 34 36 35 32 25 19 18 19 19 17 14 15 20 23 22 21 19 17
359 299 278 287 311 334 341 164 162 158 153 153 151 146 141 135 129 140 164 131 84 148 163 152 139 133 129 130 134 122 110 132 138 127 151 173 143 95 110 131 127 109 96 85 78 78 95 124 140 146 154 181 224 285 294 294 313 339 10 50 80 105 105 73 49 32 26 28 30 31 27 17 8 6 10 17 19 15 10 9 12 16 22 22 21
282 236 269 279 291 333 348 158 169 168 161 154 152 147 140 140 144 153 162 150 73 149 168 162 148 132 121 138 170 173 164 169 171 166 180 188 177 124 127 142 136 124 119 111 98 85 81 99 124 137 155 289 326 348 350 328 342 17 53 81 99 119 127 95 51 26 15 11 12 15 13 10 9 11 11 11 15 14 9 2 358 1 10 19 24
280 291 295 287 264 279 337 359 174 180 177 161 152 149 144 145 154 159 164 190 232 179 164 164 163 152 128 134 191 219 227 224 223 218 203 194 182 149 137 150 146 134 128 133 132 112 98 106 118 43 356 349 352 7 30 50 55 66 86 96 102 122 134 95 42 26 20 16 14 11 6 2 3 6 4 4 7 9 9 10 8 359 351 356 12
319 320 309 260 224 240 301 351 175 189 187 175 161 160 163 163 161 160 167 204 237 204 172 170 171 165 151 155 202 232 247 251 247 227 204 190 178 148 122 138 146 142 136 135 133 113 98 130 183 316 351 6 19 33 48 60 68 81 91 91 96 113 112 94 72 41 16 5 4 2 349 337 339 348 352 355 357 355 355 3 7 359 342 338 354